GW1618 Weather Reports


Display with metric or nautical units.
time (UTC)temp
F
wind
direction
speed
MPH
gust
MPH
rain 1hr
in
rain 24hr
in
rain mn
in
humidity
%
barometer
mb
20260903131102 55 169 7.0 12.0 0.01 0.19 0.05 87 1007.0
20260903130552 55 201 7.0 14.0 0.00 0.18 0.04 87 1007.0
20260903130042 55 202 6.0 16.0 0.00 0.18 0.04 87 1007.0
20260903125531 55 172 5.0 16.0 0.01 0.18 0.04 87 1006.9
20260903125031 55 202 5.0 12.0 0.01 0.18 0.04 87 1006.9
20260903124531 56 225 6.0 12.0 0.01 0.18 0.04 87 1006.9
20260903124022 55 186 7.0 13.0 0.01 0.18 0.04 87 1007.0
20260903123511 55 176 8.0 13.0 0.02 0.18 0.04 87 1007.0
20260903123007 55 182 7.0 13.0 0.02 0.18 0.04 87 1007.0
20260903122506 55 197 7.0 12.0 0.02 0.18 0.04 87 1006.9
20260903122004 55 190 7.0 13.0 0.02 0.18 0.04 87 1006.9
20260903121501 55 201 6.0 13.0 0.02 0.18 0.04 87 1006.9
20260903121001 55 198 5.0 11.0 0.02 0.18 0.04 88 1006.9
20260903120501 55 174 6.0 15.0 0.03 0.18 0.04 88 1006.9
20260903120002 55 164 7.0 15.0 0.02 0.17 0.03 88 1006.9
20260903115502 55 183 7.0 13.0 0.02 0.17 0.03 88 1006.8
20260903115001 55 173 6.0 15.0 0.02 0.17 0.03 87 1006.8
20260903114501 55 196 6.0 15.0 0.02 0.17 0.03 87 1006.8
20260903114319 55 217 6.0 12.0 0.02 0.17 0.03 87 1006.7
20260903113505 56 192 6.0 11.0 0.01 0.16 0.02 87 1006.7
20260903113007 56 159 7.0 14.0 0.01 0.16 0.02 87 1006.7
20260903112508 56 165 7.0 14.0 0.01 0.16 0.02 87 1006.8
20260903112002 56 168 7.0 13.0 0.01 0.16 0.02 86 1006.8
20260903111503 56 187 7.0 12.0 0.01 0.16 0.02 86 1006.8
20260903111002 56 226 7.0 12.0 0.01 0.16 0.02 85 1006.9
20260903110503 56 188 6.0 12.0 0.00 0.15 0.01 85 1006.9
20260903105955 56 221 6.0 15.0 0.00 0.15 0.01 84 1006.9
20260903105454 56 169 6.0 15.0 0.00 0.15 0.01 84 1006.9
20260903105027 56 169 5.0 10.0 0.00 0.15 0.01 84 1006.9
20260903103934 56 180 4.0 7.0 0.00 0.15 0.01 84 1006.9
20260903103425 56 200 4.0 9.0 0.00 0.15 0.01 84 1006.9
20260903102922 56 177 4.0 9.0 0.00 0.15 0.01 84 1006.9
20260903102417 56 191 4.0 7.0 0.00 0.15 0.01 84 1006.7
20260903101912 56 196 4.0 8.0 0.00 0.15 0.01 84 1006.7
20260903101412 56 177 4.0 8.0 0.00 0.15 0.01 84 1006.7
20260903100912 56 215 4.0 7.0 0.00 0.15 0.01 84 1006.6
20260903100740 56 228 3.0 7.0 0.00 0.15 0.01 84 1006.6
20260903095908 56 180 4.0 7.0 0.00 0.15 0.01 84 1006.6
20260903095409 56 188 5.0 10.0 0.00 0.15 0.01 84 1006.6
20260903094907 56 182 5.0 10.0 0.00 0.15 0.01 84 1006.6
20260903094705 56 185 4.0 7.0 0.00 0.15 0.01 84 1006.6
20260903094222 56 177 4.0 11.0 0.00 0.15 0.01 84 1006.6
20260903093835 56 176 5.0 11.0 0.00 0.15 0.01 84 1006.6
20260903092401 56 172 5.0 10.0 0.00 0.15 0.01 84 1006.8
20260903091902 56 169 4.0 10.0 0.00 0.15 0.01 84 1006.8
20260903091401 56 178 4.0 10.0 0.00 0.15 0.01 85 1006.8
20260903090901 56 200 4.0 9.0 0.00 0.15 0.01 85 1006.7
20260903090417 56 176 5.0 11.0 0.00 0.15 0.01 86 1006.7
20260903085914 56 210 5.0 11.0 0.00 0.15 0.01 85 1006.7
20260903085412 56 187 5.0 11.0 0.00 0.15 0.01 86 1006.7
20260903084903 56 222 5.0 11.0 0.01 0.15 0.01 86 1006.7
20260903084403 56 190 5.0 10.0 0.01 0.15 0.01 86 1006.7
20260903083901 56 206 6.0 11.0 0.01 0.15 0.01 86 1006.7
20260903083406 56 192 6.0 11.0 0.01 0.15 0.01 86 1006.7
20260903083156 56 182 7.0 12.0 0.01 0.15 0.01 86 1006.7
20260903082402 56 192 6.0 12.0 0.01 0.15 0.01 86 1006.6
20260903081902 56 193 5.0 9.0 0.01 0.15 0.01 86 1006.6
20260903081654 56 213 5.0 10.0 0.01 0.15 0.01 87 1006.6
20260903080900 56 202 5.0 10.0 0.01 0.15 0.01 86 1006.6
20260903080730 56 198 4.0 9.0 0.01 0.15 0.01 86 1006.6
20260903075902 56 190 4.0 6.0 0.01 0.15 0.01 86 1006.6
20260903075403 56 204 4.0 10.0 0.01 0.15 0.01 85 1006.7
20260903074905 56 175 5.0 10.0 0.00 0.14 0.00 85 1006.7
20260903074401 56 196 6.0 11.0 0.00 0.14 0.00 85 1006.7
20260903073905 56 196 5.0 11.0 0.00 0.14 0.00 84 1006.6
20260903073401 56 203 5.0 9.0 0.00 0.14 0.00 84 1006.6
20260903072904 56 202 5.0 11.0 0.00 0.14 0.00 84 1006.6
20260903072407 56 207 6.0 11.0 0.00 0.14 0.00 83 1006.6
20260903071909 56 208 6.0 11.0 0.00 0.14 0.00 83 1006.6
20260903071409 56 226 6.0 11.0 0.00 0.14 0.00 83 1006.6
20260903070903 56 208 5.0 9.0 0.00 0.14 0.00 84 1006.5
20260903070402 56 219 4.0 7.0 0.00 0.14 0.00 83 1006.5
20260903065903 56 218 4.0 7.0 0.00 0.14 0.14 84 1006.5
20260903065402 55 220 3.0 6.0 0.00 0.14 0.14 84 1006.5
20260903064901 55 228 2.0 4.0 0.00 0.14 0.14 84 1006.5
20260903064404 55 224 2.0 4.0 0.00 0.14 0.14 84 1006.5
20260903063907 55 215 1.0 3.0 0.00 0.14 0.14 84 1006.5
20260903063651 55 239 1.0 3.0 0.00 0.14 0.14 84 1006.5
20260903062905 55 219 2.0 3.0 0.00 0.14 0.14 84 1006.5
20260903062403 55 217 2.0 3.0 0.00 0.14 0.14 84 1006.6
20260903061903 55 207 2.0 3.0 0.00 0.14 0.14 84 1006.6
20260903061404 55 216 1.0 4.0 0.00 0.14 0.14 84 1006.6
20260903060856 55 210 1.0 4.0 0.00 0.14 0.14 85 1006.6
20260903060345 54 308 0.0 0.0 0.00 0.14 0.14 84 1006.6
20260903055911 54 308 0.0 0.0 0.00 0.14 0.14 84 1006.6
20260903054807 55 308 0.0 2.0 0.00 0.14 0.14 83 1006.5
20260903054305 55 308 1.0 2.0 0.00 0.14 0.14 83 1006.5
20260903053745 55 336 1.0 2.0 0.00 0.14 0.14 83 1006.5
20260903053234 56 340 1.0 2.0 0.00 0.14 0.14 82 1006.5
20260903052731 56 9 1.0 2.0 0.00 0.14 0.14 81 1006.5
20260903052234 56 189 0.0 2.0 0.00 0.14 0.14 80 1006.4
20260903052038 56 187 1.0 3.0 0.00 0.14 0.14 80 1006.4
20260903051216 56 227 1.0 3.0 0.00 0.14 0.14 80 1006.4
20260903050720 56 221 0.0 2.0 0.00 0.14 0.14 80 1006.4
20260903050211 57 182 0.0 2.0 0.00 0.14 0.14 80 1006.4
20260903045713 57 175 1.0 3.0 0.00 0.14 0.14 79 1006.4
20260903045213 57 176 1.0 4.0 0.00 0.14 0.14 79 1006.3
20260903044705 57 219 1.0 4.0 0.00 0.14 0.14 79 1006.3
20260903044206 57 204 1.0 3.0 0.00 0.14 0.14 78 1006.3
20260903043707 58 221 2.0 4.0 0.00 0.14 0.14 76 1006.2
20260903043513 57 213 2.0 4.0 0.00 0.14 0.14 76 1006.2
20260903042658 57 180 1.0 3.0 0.00 0.14 0.14 77 1006.2
20260903042204 58 175 1.0 3.0 0.00 0.14 0.14 78 1006.1
20260903041657 58 194 1.0 3.0 0.00 0.14 0.14 79 1006.1
20260903041150 58 235 2.0 3.0 0.00 0.14 0.14 74 1006.1
20260903040650 58 208 2.0 4.0 0.00 0.14 0.14 74 1006.2
20260903040149 58 195 2.0 4.0 0.00 0.14 0.14 72 1006.2
20260903035649 58 161 2.0 3.0 0.00 0.14 0.14 73 1006.2
20260903035151 59 189 2.0 4.0 0.00 0.14 0.14 75 1006.1
20260903034651 59 188 3.0 4.0 0.00 0.14 0.14 75 1006.1
20260903034141 59 215 2.0 4.0 0.00 0.14 0.14 74 1005.9
20260903034055 59 212 2.0 5.0 0.00 0.14 0.14 73 1005.9
20260903033130 60 242 3.0 5.0 0.00 0.14 0.14 69 1005.9
20260903032631 60 180 3.0 6.0 0.00 0.14 0.14 68 1005.8
20260903032130 60 179 3.0 6.0 0.00 0.14 0.14 68 1005.8
20260903032106 60 157 5.0 11.0 0.00 0.14 0.14 68 1005.8
20260903031138 60 172 7.0 13.0 0.00 0.14 0.14 68 1005.6
20260903030640 60 188 6.0 13.0 0.00 0.14 0.14 68 1005.6
20260903030133 60 205 6.0 12.0 0.00 0.14 0.14 68 1005.6
20260903025636 60 215 5.0 11.0 0.00 0.14 0.14 68 1005.4
20260903025133 61 217 6.0 11.0 0.00 0.14 0.14 68 1005.4
20260903024852 61 196 7.0 13.0 0.00 0.14 0.14 68 1005.4
20260903024631 61 196 7.0 13.0 0.00 0.14 0.14 68 1005.4
20260903024133 61 215 7.0 13.0 0.00 0.14 0.14 68 1005.1
20260903023633 61 205 7.0 13.0 0.00 0.14 0.14 68 1005.1
20260903023223 61 190 6.0 15.0 0.00 0.14 0.14 67 1005.1
20260903022848 61 229 7.0 15.0 0.00 0.14 0.14 66 1005.0
20260903022558 62 212 8.0 16.0 0.00 0.14 0.14 66 1005.0
20260903021629 62 204 6.0 16.0 0.00 0.14 0.14 65 1005.0
20260903021133 62 232 6.0 19.0 0.00 0.14 0.14 66 1005.0
20260903020646 62 217 6.0 19.0 0.00 0.14 0.14 65 1005.0
20260903020432 62 226 4.0 10.0 0.00 0.14 0.14 66 1005.0
20260903020207 62 226 4.0 10.0 0.00 0.14 0.14 66 1005.0
20260903015702 62 209 4.0 9.0 0.00 0.14 0.14 68 1005.0
20260903015637 62 180 4.0 9.0 0.00 0.14 0.14 68 1005.0
20260903014629 62 234 5.0 9.0 0.00 0.14 0.14 68 1005.0
20260903014132 62 221 5.0 10.0 0.00 0.14 0.14 68 1004.7
20260903013630 62 228 7.0 12.0 0.00 0.14 0.14 68 1004.7
20260903012631 62 188 7.0 16.0 0.00 0.14 0.14 67 1004.5
20260903012458 62 216 6.0 19.0 0.00 0.14 0.14 67 1004.5
20260903011906 62 189 8.0 19.0 0.00 0.14 0.14 68 1004.5
20260903011134 62 224 6.0 18.0 0.00 0.14 0.14 68 1004.5
20260903010936 62 228 6.0 14.0 0.00 0.14 0.14 68 1004.5
20260903010444 62 244 8.0 16.0 0.00 0.14 0.14 69 1004.5
20260903005633 61 254 8.0 16.0 0.00 0.14 0.14 70 1004.5
20260903005120 61 246 10.0 20.0 0.00 0.14 0.14 71 1004.5
20260903004611 61 234 11.0 22.0 0.00 0.14 0.14 70 1004.5
20260903004542 61 212 10.0 22.0 0.00 0.14 0.14 70 1004.5
20260903003552 61 262 7.0 19.0 0.00 0.14 0.14 70 1004.5
20260903003110 60 233 6.0 16.0 0.00 0.14 0.14 72 1004.5
20260903002600 60 224 7.0 16.0 0.00 0.14 0.14 72 1004.5
20260903002057 60 276 7.0 16.0 0.00 0.14 0.14 72 1004.5
20260903001554 60 257 8.0 15.0 0.00 0.14 0.14 73 1004.5
20260903001051 60 248 9.0 19.0 0.00 0.14 0.14 74 1004.0
20260903000549 61 223 9.0 19.0 0.00 0.14 0.14 73 1004.0
20260903000053 62 258 8.0 15.0 0.00 0.14 0.14 76 1004.0
20260902235545 62 250 10.0 20.0 0.00 0.14 0.14 75 1003.7
20260902235044 62 261 9.0 21.0 0.00 0.14 0.14 74 1003.7
20260902234842 62 300 10.0 22.0 0.00 0.14 0.14 76 1003.7
20260902234044 62 229 13.0 24.0 0.00 0.14 0.14 75 1003.5
20260902233537 61 196 10.0 24.0 0.00 0.14 0.14 75 1003.5
20260902233034 61 188 10.0 23.0 0.00 0.14 0.14 76 1003.5
20260902232537 61 194 12.0 23.0 0.00 0.14 0.14 76 1003.4
20260902232035 61 204 12.0 28.0 0.00 0.14 0.14 76 1003.4
20260902231535 61 174 12.0 28.0 0.00 0.14 0.14 76 1003.4
20260902231034 61 185 12.0 21.0 0.00 0.14 0.14 76 1003.3
20260902230837 60 188 10.0 20.0 0.00 0.14 0.14 76 1003.3
20260902230041 60 182 12.0 24.0 0.00 0.14 0.14 76 1003.3
20260902225618 60 204 13.0 24.0 0.01 0.14 0.14 76 1003.0
20260902224531 60 192 12.0 26.0 0.02 0.14 0.14 76 1003.0
20260902224029 60 219 10.0 22.0 0.02 0.14 0.14 77 1002.9
20260902223548 60 220 9.0 18.0 0.03 0.14 0.14 78 1002.9
20260902223031 59 192 8.0 17.0 0.03 0.14 0.14 80 1002.9
20260902222529 59 191 7.0 14.0 0.04 0.14 0.14 81 1002.8
20260902222030 59 152 6.0 12.0 0.05 0.14 0.14 83 1002.8
20260902221529 59 184 6.0 12.0 0.06 0.14 0.14 83 1002.8
20260902221034 59 159 6.0 11.0 0.07 0.14 0.14 83 1002.9
20260902220530 59 192 6.0 12.0 0.07 0.14 0.14 84 1002.9
20260902220034 58 172 7.0 16.0 0.07 0.14 0.14 84 1002.9
20260902215539 58 144 6.0 16.0 0.07 0.13 0.13 84 1003.0
20260902215413 58 169 5.0 10.0 0.08 0.13 0.13 84 1003.0
20260902214534 58 144 5.0 11.0 0.07 0.12 0.12 84 1003.0
20260902214031 58 139 5.0 11.0 0.08 0.12 0.12 83 1003.2
20260902213530 59 194 6.0 12.0 0.07 0.12 0.11 83 1003.2
20260902213030 59 180 7.0 15.0 0.08 0.12 0.11 83 1003.2
20260902212852 59 188 9.0 16.0 0.07 0.11 0.10 83 1003.3
20260902212033 59 186 9.0 16.0 0.06 0.10 0.08 81 1003.3
20260902211535 59 189 7.0 15.0 0.06 0.09 0.08 81 1003.3
20260902211031 59 159 6.0 11.0 0.05 0.08 0.07 82 1003.4
20260902210531 59 174 5.0 9.0 0.06 0.08 0.07 82 1003.4
20260902210129 59 205 6.0 11.0 0.06 0.08 0.07 82 1003.4
20260902205031 59 220 8.0 18.0 0.04 0.06 0.05 80 1003.5
20260902204633 59 200 9.0 18.0 0.05 0.06 0.05 80 1003.5
20260902203530 59 157 7.0 16.0 0.04 0.05 0.04 80 1003.5
20260902203337 60 186 8.0 17.0 0.03 0.04 0.03 80 1003.5
20260902202518 60 184 8.0 17.0 0.03 0.04 0.03 79 1003.7
20260902202007 60 177 7.0 17.0 0.02 0.03 0.02 79 1003.7
20260902201503 60 168 9.0 19.0 0.02 0.03 0.02 79 1003.7
20260902200958 60 173 11.0 19.0 0.02 0.03 0.02 77 1004.0
20260902200444 61 177 11.0 19.0 0.01 0.02 0.01 76 1004.0
20260902195946 61 190 12.0 28.0 0.01 0.02 0.01 75 1004.0
20260902195436 62 177 13.0 28.0 0.01 0.02 0.01 73 1003.6
20260902195154 62 171 11.0 21.0 0.00 0.01 0.00 72 1003.6
20260902194437 62 180 9.0 20.0 0.00 0.01 0.00 71 1003.6
20260902193935 63 154 9.0 19.0 0.00 0.01 0.00 70 1003.9
20260902193439 63 163 11.0 22.0 0.00 0.01 0.00 69 1003.9
20260902192935 63 236 11.0 22.0 0.00 0.01 0.00 68 1003.9
20260902192433 63 206 11.0 22.0 0.00 0.01 0.00 68 1004.0
20260902192033 64 169 11.0 22.0 0.00 0.01 0.00 67 1004.0
20260902191252 64 182 12.0 27.0 0.00 0.01 0.00 67 1004.0
20260902190433 64 179 13.0 29.0 0.00 0.01 0.00 65 1004.0
20260902185931 64 220 12.0 29.0 0.00 0.01 0.00 64 1004.0
20260902185431 65 210 10.0 22.0 0.00 0.01 0.00 64 1004.0
20260902184932 65 164 8.0 16.0 0.00 0.01 0.00 64 1004.0
20260902184439 65 167 8.0 18.0 0.00 0.01 0.00 64 1004.0
20260902183931 65 218 6.0 18.0 0.00 0.01 0.00 64 1004.2
20260902183437 65 199 5.0 13.0 0.00 0.01 0.00 64 1004.2
20260902182930 64 154 8.0 17.0 0.00 0.01 0.00 66 1004.2
20260902182832 64 183 9.0 17.0 0.00 0.01 0.00 65 1004.4
20260902181416 64 186 12.0 22.0 0.00 0.01 0.00 64 1004.4
20260902180915 64 223 10.0 22.0 0.00 0.01 0.00 63 1004.4
20260902180409 65 221 9.0 16.0 0.00 0.01 0.00 61 1004.4
20260902180216 65 191 8.0 18.0 0.00 0.01 0.00 60 1004.4
20260902175741 65 198 7.0 18.0 0.00 0.01 0.00 63 1004.4
20260902174915 64 189 6.0 13.0 0.00 0.01 0.00 64 1004.4
20260902174409 64 177 5.0 11.0 0.00 0.01 0.00 66 1004.4
20260902173906 64 174 4.0 11.0 0.00 0.01 0.00 67 1004.4
20260902173405 64 236 4.0 7.0 0.00 0.01 0.00 67 1004.4
20260902172906 64 200 5.0 11.0 0.00 0.01 0.00 67 1004.4
20260902172403 63 202 4.0 11.0 0.00 0.01 0.00 69 1004.5
20260902172215 63 168 3.0 5.0 0.00 0.01 0.00 68 1004.5
20260902171407 62 193 3.0 5.0 0.00 0.01 0.00 71 1004.5
20260902170904 62 231 3.0 5.0 0.00 0.01 0.00 72 1004.7
20260902170404 61 229 3.0 5.0 0.00 0.01 0.00 72 1004.7
20260902165903 61 220 2.0 5.0 0.00 0.01 0.00 74 1004.7
20260902165405 61 214 3.0 6.0 0.00 0.01 0.00 76 1004.7
20260902165220 61 214 3.0 6.0 0.00 0.01 0.00 75 1004.7
20260902164406 61 199 2.0 4.0 0.00 0.01 0.00 76 1004.7
20260902163910 61 235 2.0 4.0 0.00 0.01 0.00 75 1004.9
20260902163406 61 188 2.0 4.0 0.00 0.01 0.00 76 1004.9
20260902162856 60 177 2.0 4.0 0.00 0.01 0.00 76 1004.9
20260902162350 60 216 2.0 4.0 0.00 0.01 0.00 76 1005.0
20260902161854 60 229 2.0 4.0 0.00 0.01 0.00 76 1005.0
20260902161652 60 177 3.0 5.0 0.00 0.01 0.00 76 1005.0
20260902160845 60 235 3.0 5.0 0.00 0.01 0.00 76 1005.1
20260902160347 60 141 3.0 5.0 0.00 0.01 0.00 76 1005.1
20260902155846 60 216 2.0 5.0 0.00 0.01 0.00 76 1005.1
20260902155347 60 209 3.0 7.0 0.00 0.01 0.00 76 1005.5
20260902154854 60 192 4.0 7.0 0.00 0.01 0.00 76 1005.5
20260902154347 60 218 4.0 6.0 0.00 0.01 0.00 75 1005.5
20260902153848 60 190 4.0 9.0 0.00 0.01 0.00 76 1005.6
20260902153341 60 209 3.0 9.0 0.00 0.01 0.00 76 1005.6
20260902153224 60 194 2.0 5.0 0.00 0.01 0.00 77 1005.6
20260902152424 60 169 3.0 5.0 0.00 0.01 0.00 76 1005.7
20260902151640 60 212 2.0 5.0 0.00 0.01 0.00 77 1005.7
20260902150933 60 209 2.0 5.0 0.00 0.01 0.00 78 1006.1
20260902145848 60 202 3.0 5.0 0.00 0.01 0.00 79 1006.1
20260902145345 59 233 3.0 5.0 0.00 0.01 0.00 79 1006.2
20260902144841 59 219 3.0 6.0 0.00 0.01 0.00 79 1006.2
20260902144338 59 225 3.0 7.0 0.00 0.01 0.00 80 1006.2
20260902143831 59 197 2.0 7.0 0.00 0.01 0.00 80 1006.1
20260902143333 59 179 2.0 4.0 0.00 0.01 0.00 81 1006.1
20260902142830 59 202 1.0 3.0 0.00 0.01 0.00 82 1006.1
20260902142335 59 144 1.0 2.0 0.00 0.01 0.00 82 1006.4
20260902141828 59 182 1.0 3.0 0.00 0.01 0.00 82 1006.4
20260902141331 59 225 1.0 4.0 0.00 0.01 0.00 82 1006.4
20260902140835 58 229 2.0 5.0 0.00 0.01 0.00 82 1006.6
20260902140320 58 188 3.0 5.0 0.00 0.01 0.00 83 1006.6
20260902140120 58 244 2.0 4.0 0.00 0.01 0.00 83 1006.6
20260902135638 58 254 2.0 4.0 0.00 0.01 0.00 83 1006.6
20260902134815 59 226 2.0 5.0 0.00 0.01 0.00 83 1006.6
20260902134309 59 197 2.0 5.0 0.00 0.01 0.00 83 1006.6
20260902134057 59 237 3.0 7.0 0.00 0.01 0.00 83 1006.7
20260902133305 59 263 3.0 7.0 0.00 0.01 0.00 83 1006.7
20260902132807 59 217 3.0 6.0 0.00 0.01 0.00 82 1006.7
20260902132306 59 221 3.0 6.0 0.00 0.01 0.00 82 1006.7
20260902131804 59 219 3.0 6.0 0.00 0.01 0.00 83 1006.7